Location: *
(55.6049°S, 142.1985°W)
Time: 10:19:58
(UTC+00:00)

Daily predictions for brighter satellites

Satellite Brightness Start Highest point End
(mag) Time Altitude Azimuth Time Altitude Azimuth Time Altitude Azimuth
SL-16 R/B 4.1 12:22:56 25° ESE 12:22:56 25° ESE 12:26:03 10° E
ATLAS 2AS CENTAUR R/B 3.7 12:30:13 38° ESE 12:30:13 38° ESE 12:34:06 10° SE
ATLAS 5 CENTAUR R/B 3.8 12:41:28 34° SSE 12:41:28 34° SSE 12:45:02 10° ESE
NOSS 3-1 (C) 4.5 12:44:34 43° E 12:44:34 43° E 12:48:36 10° ENE
ADEOS Rocket 3.6 12:58:31 10° SSE 13:02:54 50° SE 13:02:54 50° SE
CZ-4C R/B 3.3 13:06:51 47° SSE 13:06:51 47° SSE 13:11:38 10° SE
Cosmos 2227 Rocket 4.4 13:08:13 11° NNE 13:12:12 22° ENE 13:16:29 10° SE
Cosmos 2297 Rocket 3.9 13:12:40 21° NE 13:15:01 28° ENE 13:19:48 10° SE
USA 281 3.2 13:16:56 10° SSE 13:23:38 80° ENE 13:23:45 80° NE
Cosmos 2233 Rocket 4.4 13:31:19 52° S 13:31:19 52° S 13:36:01 10° S
SL-4 R/B 4.3 13:33:10 21° ENE 13:33:10 21° ENE 13:34:39 10° ENE
SL-16 R/B 3.4 13:25:00 10° SSE 13:28:55 37° S 13:28:55 37° S
Cosmos 2082 Rocket 4.1 13:37:31 19° S 13:37:31 19° S 13:41:11 10° SSE
USA 267 3.1 13:35:11 10° E 13:41:49 86° S 13:42:32 73° WSW
USA 307 4.3 13:51:20 33° NE 13:51:20 33° NE 13:54:38 10° E
Envisat 4.1 13:46:47 10° NNE 13:49:36 34° NNE 13:49:36 34° NNE
Cosmos 2219 4.1 13:52:48 20° N 13:56:29 47° ENE 14:02:00 10° SE
RESURS DK-1 4.4 14:00:34 20° SSE 14:00:34 20° SSE 14:02:11 10° SSE
USA 229 DEB 3.6 13:59:17 50° SW 14:01:17 84° SE 14:07:53 10° NE
USA 229 3.6 13:59:23 50° SW 14:01:23 83° SE 14:07:58 10° NE
SL-08 R/B 3.5 13:58:07 10° SSE 14:03:13 79° ENE 14:04:06 60° N
USA 308 3.9 14:04:28 40° NE 14:04:28 40° NE 14:08:17 10° E
SL-16 R/B 2.1 14:04:52 64° SW 14:05:48 87° WNW 14:11:33 10° NNE
NOSS 3-4 (A) 4.3 14:06:42 44° WSW 14:08:39 53° SSW 14:15:50 10° ESE
NOSS 3-4 (C) 4.3 14:06:48 44° WSW 14:08:45 53° SSW 14:15:56 10° ESE
Cosmos 2251 Rocket 3.4 14:09:31 75° NW 14:09:57 83° WSW 14:15:25 10° SSE
Okean O Rocket 3.3 14:06:15 10° NE 14:10:12 33° ESE 14:14:12 10° S
Cosmos 1092 Rocket 4.3 14:05:37 10° S 14:12:03 68° ESE 14:18:25 10° NNE
Cosmos 1943 4.2 14:09:01 21° SSW 14:12:28 43° SE 14:17:54 10° ENE
Nadezhda 4 Rocket 3.9 14:06:40 10° SSW 14:13:02 83° W 14:19:24 10° N
Cosmos 1818 3.9 14:14:05 47° SSW 14:14:05 47° SSW 14:19:15 10° SE
CZ-2C R/B 4.4 14:10:03 10° NE 14:15:09 41° ESE 14:20:03 10° S
SMAP 3.6 14:11:38 10° NNE 14:16:16 60° ESE 14:20:58 10° S
Meteor 2-10 Rocket 3.5 14:13:17 16° N 14:17:29 77° ENE 14:22:36 10° SSE
Cosmos 2058 3.1 14:16:43 53° S 14:17:37 73° ESE 14:21:52 10° NNE
ATLAS 2AS CENTAUR R/B 2.8 14:17:39 46° SW 14:18:50 52° SSW 14:25:21 10° SE
Cosmos 1072 Rocket 4.4 14:12:56 10° NNW 14:19:24 81° WSW 14:25:53 10° S
H-2A R/B 4.1 14:14:57 10° ENE 14:19:29 27° SE 14:23:57 10° S
NOAA 12 4.2 14:15:12 10° NNE 14:20:34 77° ESE 14:26:01 10° SSW
NOSS 3-1 (A) 3.4 14:19:26 43° SW 14:21:48 87° NW 14:27:36 10° NE
CZ-4B R/B 3.9 14:16:42 10° NE 14:22:07 54° ESE 14:27:30 10° S
GENESIS II 4.5 14:22:56 63° NE 14:22:56 63° NE 14:26:19 10° NE
Cosmos 2026 Rocket 4.3 14:17:47 10° S 14:24:09 67° ESE 14:30:20 10° NNE
CZ-4 R/B 4.2 14:21:32 10° E 14:24:17 17° SE 14:27:04 10° SSE
ATLAS 5 CENTAUR R/B 3.1 14:22:59 32° SW 14:25:11 43° S 14:30:27 10° E
Cosmos 2058 Rocket 3.5 14:21:28 10° N 14:25:57 63° E 14:30:26 10° SSE
GEOS 3 Rocket 3.9 14:22:03 10° ENE 14:27:04 62° SSE 14:29:05 36° SSW
Cosmos 1140 Rocket 4.0 14:22:45 10° N 14:27:56 61° ENE 14:33:10 10° SSE
Cosmos 614 Rocket 3.9 14:28:31 49° NW 14:29:57 76° WSW 14:35:18 10° SSE
USA 32 3.9 14:26:50 22° NNW 14:30:19 70° W 14:35:40 10° S
MOS 1-B 4.4 14:25:07 10° NNE 14:30:57 82° ESE 14:36:51 10° SSW
Cosmos 1606 Rocket 3.5 14:32:59 65° WSW 14:32:59 65° WSW 14:37:29 10° S
Cosmos 1726 Rocket 3.5 14:32:09 45° NNW 14:33:30 78° WSW 14:38:06 10° S
NOSS 3-1 (C) 3.5 14:32:00 44° W 14:33:36 56° NW 14:39:08 10° NNE
Cosmos 1891 Rocket 4.4 14:29:03 16° NNW 14:34:10 65° WSW 14:40:33 10° S
NOAA 11 4.1 14:29:07 10° NNE 14:34:36 89° WNW 14:40:10 10° SSW
Cosmos 2237 Rocket 4.1 14:40:53 15° NNW 14:40:53 15° NNW 14:42:01 10° NNW
AQUARIUS 4.2 14:34:07 10° NNE 14:38:41 79° ESE 14:43:18 10° SSW
Cosmos 2084 Rocket 3.9 14:39:00 49° SW 14:39:26 51° SSW 14:43:58 10° SE
Lacrosse 5 rocket 3.6 14:44:13 12° NNW 14:44:13 12° NNW 14:44:42 10° N
Cosmos 2228 3.6 14:43:31 40° SW 14:43:31 40° SW 14:46:59 10° S
USA 305 3.3 14:42:55 43° NNW 14:44:01 56° NNE 14:48:17 10° E
FALCON 9 DEB 4.4 14:45:57 29° N 14:45:57 29° N 14:48:11 10° NE
FengYun 1-2 T 4.2 14:39:46 10° NNE 14:45:29 89° ESE 14:51:13 10° SSW
Cosmos 1190 Rocket 4.3 14:41:11 10° NNW 14:46:31 72° ENE 14:51:54 10° SSE
Cosmos 1633 3.3 14:45:29 10° S 14:49:08 53° ESE 14:52:45 10° NNE
PSLV R/B 3.8 14:45:28 10° N 14:49:33 62° WNW 14:50:39 44° SW
ADEOS Rocket 3.6 14:44:33 10° S 14:49:35 33° WSW 14:49:50 32° WSW
Spot 2 4.3 14:46:23 10° NNE 14:50:54 80° ESE 14:55:47 10° SSW
Cosmos 44 4.2 14:50:54 26° SSW 14:51:15 27° SSW 14:54:56 10° SE
Cosmos 44 Rocket 3.1 14:49:37 38° NW 14:51:24 83° SW 14:56:06 10° SE
Cosmos 1076 Rocket 3.6 14:48:24 10° S 14:52:52 84° ESE 14:57:19 10° NNE
Meteor 2-3 Rocket 4.5 14:48:57 10° S 14:54:43 56° ESE 15:00:27 10° NNE
CZ-4C R/B 3.2 14:52:02 25° SW 14:55:17 42° S 15:00:39 10° ESE
Cosmos 2227 Rocket 2.2 14:50:09 12° NNW 14:55:34 89° WSW 15:01:22 10° SE
H-2A R/B 2.6 14:53:24 10° NNE 14:57:41 75° ESE 15:01:53 10° SSW
Cosmos 2297 Rocket 2.1 14:54:33 20° NW 14:58:38 73° SW 15:04:23 10° SSE
Cosmos 1455 2.2 14:56:21 23° NNW 14:58:39 62° WSW 15:02:35 10° S
Cosmos 405 Rocket 3.1 14:59:55 45° W 14:59:55 45° W 15:03:49 10° N
CZ-4B DEB 4.3 14:54:57 10° N 15:00:27 57° WNW 15:06:01 10° SSW
COSMOS 2455 2.9 14:56:40 10° NW 15:02:43 81° NE 15:08:49 10° SE
Cosmos 1825 3.7 15:04:45 22° NW 15:04:45 22° NW 15:06:22 10° NNW
CZ-2D R/B 3.9 14:59:03 10° NNE 15:02:55 59° ESE 15:06:50 10° S
USA 306 3.2 15:01:34 33° NW 15:03:23 63° NNE 15:07:41 10° E
IRAS Rocket 4.3 14:58:14 10° SSE 15:03:50 79° ENE 15:09:23 10° NNW
Cosmos 1464 Rocket 4.3 15:00:15 10° NW 15:06:25 47° WSW 15:12:40 10° S
Cosmos 1939 Rocket 2.7 15:03:14 10° NNE 15:07:13 82° WNW 15:11:20 10° SSW
USA 281 3.8 15:01:45 10° SSE 15:07:43 37° SW 15:10:37 25° W
X-37B 3.4 15:07:49 10° NNW 15:09:09 12° N 15:10:29 10° NE
SL-4 R/B 3.0 15:08:44 28° NW 15:09:50 32° NNW 15:13:23 10° NE
Cosmos 676 Rocket 4.4 15:04:40 10° NNW 15:10:01 70° ENE 15:15:24 10° SSE
Cosmos 2082 4.0 15:04:21 10° NNW 15:10:06 72° ENE 15:15:52 10° SE
Cosmos 1763 Rocket 3.5 15:05:37 15° SSW 15:10:06 72° WNW 15:15:23 10° NNE
Cosmos 407 Rocket 3.4 15:05:22 10° NW 15:10:39 67° WSW 15:15:55 10° SSE
Cosmos 2098 Rocket 3.8 15:12:17 28° WNW 15:12:17 28° WNW 15:15:02 10° NNW
Cosmos 2151 3.1 15:07:32 10° S 15:11:54 77° ESE 15:16:14 10° NNE
ASTEX 1 3.6 15:08:07 10° S 15:12:54 47° WSW 15:17:38 10° NNW
SL-16 R/B 4.0 15:09:33 10° S 15:13:27 17° SW 15:14:00 17° SW
Cosmos 2034 Rocket 4.1 15:09:11 10° NNW 15:15:16 53° WSW 15:21:24 10° S
Meteor 2-1 Rocket 4.1 15:09:41 10° NNW 15:15:16 82° WSW 15:20:59 10° SSE
ERBS 3.2 15:16:42 19° NW 15:18:51 47° NNE 15:22:08 10° ESE
Cosmos 841 Rocket 3.6 15:15:40 10° SSW 15:21:02 79° ESE 15:26:22 10° NNE
Cosmos 389 Rocket 2.4 15:19:04 10° NNW 15:22:30 56° WSW 15:25:59 10° S
Cosmos 1603 3.7 15:17:50 13° SW 15:23:03 83° WNW 15:28:49 10° NNE
Timation 2 Rocket 4.1 15:16:39 10° NW 15:23:16 74° SW 15:30:12 10° SE
Cosmos 2082 Rocket 4.1 15:19:21 10° SSW 15:23:21 19° SSE 15:27:24 10° ESE
USA 267 3.5 15:18:38 10° NE 15:25:07 59° NNW 15:29:53 19° WSW
ARGOS 4.0 15:20:55 10° NE 15:26:13 52° ESE 15:31:34 10° S
Cosmos 1634 Rocket 4.0 15:20:19 10° NNW 15:26:42 81° WSW 15:33:11 10° S
Meteor 1-4 Rocket 4.4 15:24:41 10° NNE 15:27:56 33° E 15:31:12 10° SSE
USA 307 3.1 15:27:27 21° WNW 15:30:18 69° N 15:34:38 10° E
Cosmos 1809 Rocket 4.4 15:24:27 10° SSW 15:30:44 81° W 15:36:52 10° N
Cosmos 468 Rocket 4.2 15:26:30 13° SW 15:31:09 51° WNW 15:36:13 10° N
Cosmos 1655 Rocket 4.3 15:24:49 10° S 15:31:21 77° ESE 15:37:49 10° NNE
COSMO-SKYMED 1 3.5 15:29:50 10° SSE 15:34:13 54° E 15:38:32 10° N
Cosmos 1812 Rocket 3.6 15:29:55 10° N 15:34:19 86° ENE 15:38:49 10° SSE
RESURS DK-1 4.4 15:36:26 13° SW 15:37:32 14° SSW 15:39:51 10° SSE
IRS-1C Rocket 4.5 15:32:25 10° NNE 15:37:43 70° ESE 15:43:05 10° SSW
Cosmos 1954 Rocket 4.0 15:32:41 10° NNW 15:38:03 78° WSW 15:43:27 10° SSE
Cosmos 2208 Rocket 4.3 15:33:55 10° SSW 15:39:14 69° ESE 15:44:27 10° NE
H-2A R/B 2.6 15:35:03 10° SSE 15:39:15 61° ENE 15:43:29 10° N
Cosmos 2219 3.5 15:35:06 10° WNW 15:40:43 48° SW 15:46:20 10° SSE
USA 308 3.1 15:40:36 17° WNW 15:43:55 71° N 15:48:15 10° E
Cosmos 1766 Rocket 3.9 15:39:42 10° S 15:44:14 70° ESE 15:48:40 10° NNE
Okean O Rocket 2.0 15:42:16 10° N 15:46:28 43° W 15:50:46 10° SSW
SL-16 R/B 3.5 15:46:48 16° WSW 15:49:11 21° W 15:53:18 10° NNW
Cosmos 2142 Rocket 4.4 15:43:44 10° NNW 15:49:56 78° WSW 15:56:14 10° S
USA 229 DEB 4.3 15:46:45 15° WSW 15:51:40 34° WNW 15:57:23 10° N
USA 229 4.3 15:46:50 15° WSW 15:51:46 34° WNW 15:57:29 10° N
Geosat 4.0 15:46:41 10° NNE 15:51:46 80° WNW 15:56:54 10° SW
SMAP 4.1 15:50:08 10° NNW 15:53:59 25° W 15:57:54 10° SW
Cosmos 2058 4.4 15:53:00 16° WSW 15:53:59 17° W 15:56:45 10° WNW
Cosmos 2263 Rocket 3.0 15:48:25 10° NNW 15:54:01 58° ENE 15:59:40 10° SE
CZ-4C R/B 3.2 15:50:50 10° S 15:54:24 49° WSW 15:57:52 10° NW
CZ-2C R/B 3.5 15:49:46 10° N 15:55:02 44° W 16:00:06 10° SSW
Okean-O 3.0 15:51:45 10° NNE 15:56:13 71° ESE 16:00:45 10° SSW
MOS 1 Rocket 3.7 15:50:59 10° S 15:56:16 57° WSW 16:01:37 10° NW
Cosmos 1943 3.4 15:51:08 10° SW 15:56:46 55° WNW 16:02:17 10° N
H-2A R/B 2.2 15:52:58 10° N 15:58:28 75° WNW 16:03:56 10° SSW
CZ-4 R/B 1.4 15:54:39 10° NNE 15:58:44 85° WNW 16:02:59 10° SSW
Cosmos 1850 Rocket 4.3 15:55:06 10° NNW 16:00:23 73° ENE 16:05:41 10° SSE
NOSS 3-4 (A) 4.4 15:54:09 13° WSW 16:00:59 49° S 16:07:45 10° E
NOSS 3-4 (C) 4.4 15:54:15 13° WSW 16:01:05 49° S 16:07:51 10° E
Cosmos 540 Rocket 3.7 15:56:06 10° SW 16:01:12 52° WNW 16:06:14 10° N
YAOGAN 1 2.6 15:57:40 10° NNE 16:02:04 89° W 16:06:32 10° SSW
SL-19 R/B 3.5 15:59:35 10° NNE 16:02:28 72° WNW 16:05:35 10° SSW
Meteor 2-16 Rocket 4.5 15:56:25 10° SSW 16:02:37 84° W 16:08:47 10° N
CZ-4B R/B 3.9 15:57:52 10° NNW 16:02:55 35° W 16:07:58 10° SSW
Cosmos 1869 4.0 15:59:29 10° N 16:03:34 63° E 16:07:45 10° SSE
Cosmos 2058 Rocket 4.2 16:00:45 10° WNW 16:04:22 23° WSW 16:07:59 10° S
GEOS 3 Rocket 4.1 16:00:29 10° NNE 16:05:18 44° NW 16:10:11 10° SW
CZ-4B R/B 2.1 16:02:44 10° SSE 16:06:00 57° ENE 16:09:19 10° N
Meteor 2-21 Rocket 4.5 16:01:42 10° SSW 16:07:56 69° W 16:14:03 10° N
Cosmos 1741 Rocket 4.2 16:04:26 10° NNW 16:09:46 81° ENE 16:15:12 10° SSE
Cosmos 921 Rocket 3.2 16:05:22 10° SSW 16:09:50 63° WNW 16:14:19 10° N
Cosmos 1140 Rocket 4.2 16:05:18 10° WNW 16:10:06 34° SW 16:14:55 10° SSE
ATLAS 5 CENTAUR R/B 2.3 16:04:31 10° SW 16:10:40 77° SE 16:15:47 10° ENE
ATLAS 2AS CENTAUR R/B 3.3 16:05:06 12° WSW 16:10:53 43° S 16:17:25 10° ESE
NOSS 3-1 (A) 4.5 16:06:54 11° WSW 16:11:45 25° WNW 16:16:17 10° NNW
HJ-1C 3.4 16:08:36 10° NNE 16:11:57 86° ESE 16:15:21 10° SSW
Aureole 3 3.7 16:10:42 10° NW 16:14:10 43° WSW 16:18:29 10° S
Cosmos 1570 Rocket 4.2 16:09:24 10° SSW 16:14:46 62° WNW 16:20:05 10° N
Cosmos 2279 Rocket 4.1 16:09:27 10° NNW 16:15:40 60° WSW 16:21:57 10° S
Cosmos 1814 Rocket 4.1 16:10:47 10° SSW 16:16:03 61° WNW 16:21:20 10° N
Landsat 5 4.1 16:12:27 10° S 16:16:36 39° WSW 16:20:49 10° NW
CSL-04 Rocket 4.0 16:11:22 10° NNE 16:16:56 76° ESE 16:22:28 10° SSW
SKYMED 2 3.6 16:17:57 10° S 16:22:21 61° WSW 16:26:42 10° NNW
CREW DRAGON DEMO-1 DEB 3.9 16:20:01 10° WNW 16:22:33 35° N 16:25:06 10° ENE
Aureole 2 Rocket 2.4 16:20:17 10° WNW 16:22:43 32° SW 16:25:08 10° SSE
Cosmos 1633 4.1 16:21:00 10° SW 16:23:33 18° W 16:26:04 10° NW
USA 305 3.1 16:19:29 10° W 16:23:50 72° N 16:28:08 10° E
Cosmos 1408 Rocket 3.6 16:20:03 10° SSW 16:24:34 88° ESE 16:28:59 10° N
Cosmos 1833 Rocket 4.0 16:22:09 10° SSW 16:27:19 34° SE 16:32:26 10° E
Cosmos 2227 4.4 16:23:26 10° NNW 16:29:07 85° ENE 16:34:54 10° SE
Resurs 01 Rocket 3.8 16:26:39 10° ENE 16:30:10 23° ESE 16:33:43 10° S
USA 215 3.7 16:24:51 10° ESE 16:31:30 72° NNE 16:38:07 10° WNW
Cosmos 2266 Rocket 4.2 16:27:06 10° SSW 16:33:14 53° W 16:39:25 10° NNW
Cosmos 44 Rocket 4.1 16:29:16 10° W 16:33:29 32° SSW 16:37:42 10° SE
Cosmos 44 4.4 16:30:01 10° SW 16:33:36 25° S 16:37:11 10° ESE
H-2A R/B 4.0 16:30:45 10° NW 16:33:37 17° W 16:36:27 10° SW
Cosmos-2242 3.4 16:29:54 10° NNW 16:34:12 47° WSW 16:38:35 10° S
SJ-6B 3.8 16:32:02 10° NE 16:35:52 49° ESE 16:39:41 10° S
IRIDIUM 104 4.4 16:30:52 10° NNW 16:36:06 62° W 16:41:24 10° S
Meteor 2-3 Rocket 4.5 16:32:33 10° SSW 16:37:41 33° W 16:42:50 10° NNW
